EW5858 Weather Reports


time (UTC)temp
F
wind
direction
speed
knots
gust
knots
rain 1hr
in
rain 24hr
in
rain mn
in
humidity
%
barometer
mb
20260906115535 70 86 0.9 1.7 0.00 0.00 0.00 85 1018.4
20260906115036 69 184 0.9 3.5 0.00 0.00 0.00 85 1018.4
20260906114752 69 81 0.9 3.5 0.00 0.00 0.00 86 1018.3
20260906114241 69 71 0.0 0.9 0.00 0.00 0.00 86 1018.1
20260906114117 69 54 0.0 1.7 0.00 0.00 0.00 86 1018.2
20260906113006 69 91 0.0 0.9 0.00 0.00 0.00 86 1018.0
20260906112737 69 0 0.0 0.9 0.00 0.00 0.00 86 1018.0
20260906111952 69 0 0.0 0.9 0.00 0.00 0.00 86 1018.0
20260906111452 69 188 0.0 0.0 0.00 0.00 0.00 86 1017.9
20260906111439 69 0 0.0 0.0 0.00 0.00 0.00 86 1017.9
20260906110438 69 0 0.0 0.0 0.00 0.00 0.00 86 1017.9
20260906110208 69 0 0.0 0.0 0.00 0.00 0.00 86 1017.8
20260906105442 69 0 0.0 0.0 0.00 0.00 0.00 86 1017.8
20260906105437 69 0 0.0 0.0 0.00 0.00 0.00 86 1017.8
20260906104708 70 0 0.0 0.0 0.00 0.00 0.00 85 1017.7
20260906103937 70 0 0.0 0.0 0.00 0.00 0.00 85 1017.6
20260906103436 70 0 0.0 0.0 0.00 0.00 0.00 85 1017.4
20260906102937 70 0 0.0 0.0 0.00 0.00 0.00 85 1017.4
20260906102436 70 0 0.0 0.0 0.00 0.00 0.00 85 1017.5
20260906101936 70 0 0.0 0.0 0.00 0.00 0.00 85 1017.5
20260906101437 71 0 0.0 0.9 0.00 0.00 0.00 84 1017.3
20260906100937 71 0 0.0 0.9 0.00 0.00 0.00 84 1017.3
20260906100437 71 0 0.0 0.9 0.00 0.00 0.00 84 1017.4
20260906100154 71 0 0.0 0.9 0.00 0.00 0.00 84 1017.4
20260906095423 71 0 0.0 0.0 0.00 0.00 0.00 83 1017.3
20260906094923 72 0 0.0 0.0 0.00 0.00 0.00 83 1017.4
20260906094428 72 0 0.0 0.0 0.00 0.00 0.00 83 1017.3
20260906094423 72 0 0.0 0.0 0.00 0.00 0.00 83 1017.3
20260906093409 72 0 0.0 0.0 0.00 0.00 0.00 83 1017.3
20260906092909 72 0 0.0 0.0 0.00 0.00 0.00 83 1017.3
20260906092640 72 0 0.0 0.9 0.00 0.00 0.00 83 1017.3
20260906092125 72 0 0.0 0.9 0.00 0.00 0.00 83 1017.3
20260906091355 72 0 0.0 0.0 0.00 0.00 0.00 83 1017.3
20260906090854 72 0 0.0 0.9 0.00 0.00 0.00 83 1017.3
20260906090355 72 67 0.0 0.9 0.00 0.00 0.00 83 1017.2
20260906085855 72 0 0.0 0.9 0.00 0.00 0.00 83 1017.2
20260906085355 72 88 0.0 0.9 0.00 0.00 0.00 83 1017.3
20260906085125 72 0 0.0 0.0 0.00 0.00 0.00 83 1017.3
20260906084339 72 0 0.0 0.0 0.00 0.00 0.00 83 1017.2
20260906083824 72 0 0.0 0.9 0.00 0.00 0.00 83 1017.2
20260906083310 72 0 0.0 0.9 0.00 0.00 0.00 83 1017.1
20260906082810 72 0 0.0 0.0 0.00 0.00 0.00 83 1017.1
20260906082307 72 0 0.0 0.9 0.00 0.00 0.00 83 1017.1
20260906081755 72 0 0.0 0.9 0.00 0.00 0.00 83 1017.1
20260906081241 72 62 0.0 0.9 0.00 0.00 0.00 83 1017.1
20260906080740 72 0 0.0 0.0 0.00 0.00 0.00 83 1017.1
20260906080241 72 0 0.0 0.9 0.00 0.00 0.00 83 1017.1
20260906075741 72 0 0.0 0.9 0.00 0.00 0.00 83 1017.1
20260906075241 72 0 0.0 0.9 0.00 0.00 0.00 83 1017.1
20260906074741 72 0 0.0 0.0 0.00 0.00 0.00 83 1017.1
20260906074509 72 0 0.0 0.9 0.00 0.00 0.00 83 1017.1
20260906073739 72 0 0.0 0.9 0.00 0.00 0.00 83 1017.0
20260906073239 72 0 0.0 0.0 0.00 0.00 0.00 84 1017.1
20260906072739 72 0 0.0 1.7 0.00 0.00 0.00 84 1017.2
20260906072240 73 0 0.0 1.7 0.00 0.00 0.00 84 1017.2
20260906071740 73 0 0.0 0.9 0.00 0.00 0.00 85 1017.2
20260906071239 73 0 0.0 0.9 0.00 0.00 0.00 85 1017.2
20260906071011 73 0 0.0 0.9 0.00 0.00 0.00 85 1017.3
20260906070240 73 0 0.0 0.0 0.00 0.00 0.00 85 1017.3
20260906065739 72 27 0.0 0.9 0.00 0.00 0.00 84 1017.2
20260906065227 72 0 0.0 0.9 0.00 0.00 0.00 84 1017.2
20260906064726 72 0 0.0 0.9 0.00 0.00 0.00 84 1017.2
20260906064212 72 64 0.0 0.9 0.00 0.00 0.00 84 1017.2
20260906063942 72 345 0.0 0.9 0.00 0.00 0.00 84 1017.2
20260906063212 72 57 0.0 0.9 0.00 0.00 0.00 84 1017.2
20260906062712 72 0 0.0 0.9 0.00 0.00 0.00 85 1017.2
20260906062212 72 87 0.0 1.7 0.00 0.00 0.00 85 1017.2
20260906061658 72 36 0.0 1.7 0.00 0.00 0.00 85 1017.2
20260906061142 72 0 0.0 0.0 0.00 0.00 0.00 85 1017.2
20260906060642 72 0 0.0 0.0 0.00 0.00 0.00 86 1017.2
20260906060142 72 0 0.0 0.0 0.00 0.00 0.00 86 1017.2
20260906055643 72 0 0.0 0.9 0.00 0.00 0.00 86 1017.2
20260906055414 72 0 0.0 0.9 0.00 0.00 0.00 86 1017.2
20260906054914 71 82 0.0 0.9 0.00 0.00 0.00 86 1017.2
20260906054143 71 0 0.0 0.9 0.00 0.00 0.00 87 1017.2
20260906053643 71 0 0.0 0.0 0.00 0.00 0.00 87 1017.1
20260906053142 71 0 0.0 0.9 0.00 0.00 0.00 87 1017.1
20260906052629 71 0 0.0 0.9 0.00 0.00 0.00 87 1017.0
20260906052130 71 0 0.0 0.9 0.00 0.00 0.00 87 1017.0
20260906051634 71 0 0.0 0.9 0.00 0.00 0.00 87 1016.9
20260906051128 71 0 0.0 0.0 0.00 0.00 0.00 87 1016.8
20260906050600 71 0 0.0 0.0 0.00 0.00 0.00 87 1016.8
20260906050059 72 0 0.0 0.9 0.00 0.00 0.00 87 1016.8
20260906045602 72 0 0.0 1.7 0.00 0.00 0.00 87 1016.7
20260906045058 72 345 0.0 1.7 0.00 0.00 0.00 87 1016.7
20260906044834 72 0 0.0 1.7 0.00 0.00 0.00 87 1016.7
20260906044059 72 0 0.0 1.7 0.00 0.00 0.00 87 1016.7
20260906043559 72 81 0.0 0.9 0.00 0.00 0.00 87 1016.6
20260906043059 72 119 0.0 0.9 0.00 0.00 0.00 87 1016.6
20260906042600 72 0 0.0 0.9 0.00 0.00 0.00 87 1016.4
20260906042321 72 156 0.0 0.9 0.00 0.00 0.00 87 1016.4
20260906041542 72 318 0.0 0.9 0.00 0.00 0.00 86 1016.4
20260906041042 72 273 0.0 0.9 0.00 0.00 0.00 86 1016.3
20260906040415 72 288 0.0 0.9 0.00 0.00 0.00 86 1016.3
20260906035904 72 300 0.0 0.9 0.00 0.00 0.00 86 1016.2
20260906035403 72 71 0.0 1.7 0.00 0.00 0.00 86 1016.2
20260906034905 72 41 0.0 1.7 0.00 0.00 0.00 86 1016.2
20260906034359 72 97 0.0 0.9 0.00 0.00 0.00 85 1016.2
20260906033844 72 0 0.0 1.7 0.00 0.00 0.00 85 1016.2
20260906033616 72 0 0.0 2.6 0.00 0.00 0.00 85 1016.2
20260906032848 72 107 0.0 2.6 0.00 0.00 0.00 85 1016.2
20260906032331 72 90 0.0 0.9 0.00 0.00 0.00 85 1016.2
20260906031701 72 87 0.0 0.9 0.00 0.00 0.00 85 1016.2
20260906031200 72 47 0.0 2.6 0.00 0.00 0.00 85 1016.2
20260906030700 72 310 0.9 2.6 0.00 0.00 0.00 85 1016.2
20260906030145 72 32 0.9 1.7 0.00 0.00 0.00 85 1016.2
20260906025645 72 269 0.9 1.7 0.00 0.00 0.00 85 1016.2
20260906025145 72 0 0.0 1.7 0.00 0.00 0.00 84 1016.2
20260906024646 73 91 0.0 1.7 0.00 0.00 0.00 84 1016.2
20260906024415 73 0 0.0 1.7 0.00 0.00 0.00 84 1016.2
20260906023644 73 278 0.0 1.7 0.00 0.00 0.00 84 1016.2
20260906023145 73 44 0.0 0.9 0.00 0.00 0.00 84 1016.1
20260906022644 73 82 0.0 1.7 0.00 0.00 0.00 83 1016.2
20260906022132 73 348 0.9 1.7 0.00 0.00 0.00 83 1016.2
20260906021631 73 282 0.9 1.7 0.00 0.00 0.00 83 1016.3
20260906021131 73 282 0.9 1.7 0.00 0.00 0.00 83 1016.3
20260906020631 73 276 0.9 1.7 0.00 0.00 0.00 83 1016.4
20260906020116 73 71 0.9 1.7 0.00 0.00 0.00 83 1016.4
20260906015617 73 298 0.0 1.7 0.00 0.00 0.00 82 1016.4
20260906015117 73 307 0.0 2.6 0.00 0.00 0.00 82 1016.3
20260906014616 73 58 0.9 2.6 0.00 0.00 0.00 82 1016.3
20260906014117 73 46 0.9 2.6 0.00 0.00 0.00 83 1016.3
20260906013617 73 295 0.0 1.7 0.00 0.00 0.00 82 1016.4
20260906013116 73 0 0.9 2.6 0.00 0.00 0.00 82 1016.3
20260906012616 73 36 0.9 2.6 0.00 0.00 0.00 82 1016.4
20260906012348 73 0 0.9 2.6 0.00 0.00 0.00 82 1016.3
20260906011617 73 0 0.0 2.6 0.00 0.00 0.00 82 1016.2
20260906011104 73 276 0.0 1.7 0.00 0.00 0.00 82 1016.1
20260906010603 73 322 0.9 1.7 0.00 0.00 0.00 82 1016.1
20260906010048 73 0 0.9 1.7 0.00 0.00 0.00 82 1015.9
20260906005547 73 266 0.9 1.7 0.00 0.00 0.00 82 1015.8
20260906005048 73 291 0.9 1.7 0.00 0.00 0.00 83 1015.7
20260906004549 73 335 0.0 1.7 0.00 0.00 0.00 83 1015.8
20260906004048 73 105 0.9 1.7 0.00 0.00 0.00 83 1015.7
20260906003548 73 348 0.9 1.7 0.00 0.00 0.00 83 1015.7
20260906003053 73 292 0.9 1.7 0.00 0.00 0.00 83 1015.7
20260906003047 73 338 0.9 1.7 0.00 0.00 0.00 83 1015.7
20260906002046 73 272 0.9 1.7 0.00 0.00 0.00 83 1015.7
20260906001533 73 80 0.9 1.7 0.00 0.00 0.00 83 1015.7
20260906001033 73 0 0.9 2.6 0.00 0.00 0.00 83 1015.7
20260906000518 73 306 0.9 2.6 0.00 0.00 0.00 83 1015.7
20260906000018 73 63 0.9 2.6 0.00 0.00 0.00 83 1015.7
20260905235518 73 277 0.9 2.6 0.00 0.00 0.00 83 1015.7
20260905235250 73 290 0.9 2.6 0.00 0.00 0.00 82 1015.7
20260905234519 73 309 0.9 1.7 0.00 0.00 0.00 82 1015.8
20260905234018 73 151 0.9 1.7 0.00 0.00 0.00 82 1015.8
20260905233519 73 285 0.9 1.7 0.00 0.00 0.00 82 1015.7
20260905233018 73 266 0.9 1.7 0.00 0.00 0.00 82 1015.6
20260905232750 73 72 0.9 1.7 0.00 0.00 0.00 82 1015.7
20260905232019 73 66 0.9 2.6 0.00 0.00 0.00 82 1015.7
20260905231504 73 308 0.9 3.5 0.00 0.00 0.00 82 1015.6
20260905231005 73 291 0.9 3.5 0.00 0.00 0.00 82 1015.5
20260905230505 73 88 0.9 1.7 0.00 0.00 0.00 81 1015.4
20260905225950 73 40 0.9 3.5 0.00 0.00 0.00 82 1015.4
20260905225720 74 127 0.9 3.5 0.00 0.00 0.00 82 1015.4
20260905225221 74 79 0.9 2.6 0.00 0.00 0.00 82 1015.5
20260905224721 74 250 0.9 2.6 0.00 0.00 0.00 81 1015.5
20260905223954 74 264 0.0 1.7 0.00 0.00 0.00 82 1015.6
20260905223449 74 47 0.9 3.5 0.00 0.00 0.00 82 1015.5
20260905222948 74 307 1.7 4.3 0.00 0.00 0.00 82 1015.6
20260905222940 75 358 0.9 4.3 0.00 0.00 0.00 81 1015.5
20260905221935 75 46 0.9 4.3 0.00 0.00 0.00 81 1015.4
20260905221421 75 56 0.9 4.3 0.00 0.00 0.00 81 1015.4
20260905220920 75 219 0.9 4.3 0.00 0.00 0.00 81 1015.3
20260905220420 76 334 0.0 1.7 0.00 0.00 0.00 81 1015.4
20260905215906 76 294 0.0 1.7 0.00 0.00 0.00 81 1015.2
20260905215405 76 0 0.0 1.7 0.00 0.00 0.00 80 1015.2
20260905214850 76 96 0.0 2.6 0.00 0.00 0.00 80 1015.2
20260905214352 76 57 0.9 2.6 0.00 0.00 0.00 80 1015.1
20260905214122 76 308 0.9 1.7 0.00 0.00 0.00 80 1015.0
20260905213621 77 198 0.9 3.5 0.00 0.00 0.00 80 1014.9
20260905212851 77 107 0.9 3.5 0.00 0.00 0.00 80 1014.9
20260905212351 77 0 0.0 1.7 0.00 0.00 0.00 79 1014.9
20260905211849 77 0 0.9 1.7 0.00 0.00 0.00 80 1014.9
20260905211350 77 0 0.9 2.6 0.00 0.00 0.00 80 1014.9
20260905210850 77 90 0.9 3.5 0.00 0.00 0.00 80 1015.0
20260905210350 77 0 0.9 3.5 0.00 0.00 0.00 80 1014.9
20260905205837 78 276 0.9 1.7 0.00 0.00 0.00 79 1014.9
20260905205337 78 314 0.9 1.7 0.00 0.00 0.00 78 1014.9
20260905204836 78 125 0.9 2.6 0.00 0.00 0.00 79 1014.9
20260905204322 77 0 0.9 2.6 0.00 0.00 0.00 79 1014.9
20260905203822 78 32 0.9 1.7 0.00 0.00 0.00 79 1014.9
20260905203554 77 343 0.9 1.7 0.00 0.00 0.00 79 1014.9
20260905202821 77 64 0.9 1.7 0.00 0.00 0.00 79 1015.0
20260905202323 77 94 0.9 1.7 0.00 0.00 0.00 80 1014.9
20260905201822 77 0 0.9 1.7 0.00 0.00 0.00 79 1015.0
20260905201322 78 0 0.9 2.6 0.00 0.00 0.00 78 1015.0
20260905201052 78 270 0.9 2.6 0.00 0.00 0.00 78 1015.1
20260905200307 78 327 0.9 2.6 0.00 0.00 0.00 77 1015.0
20260905195807 78 16 0.0 1.7 0.00 0.00 0.00 78 1015.0
20260905195307 78 0 0.9 2.6 0.00 0.00 0.00 78 1015.1
20260905194752 78 33 0.9 2.6 0.00 0.00 0.00 77 1015.1
20260905194253 77 211 0.9 1.7 0.00 0.00 0.00 77 1015.2
20260905193753 78 323 0.9 2.6 0.00 0.00 0.00 78 1015.2
20260905193254 78 316 0.9 2.6 0.00 0.00 0.00 77 1015.2
20260905193023 78 299 0.9 2.6 0.00 0.00 0.00 77 1015.2
20260905192253 77 336 0.9 2.6 0.00 0.00 0.00 78 1015.2
20260905192022 77 215 1.7 4.3 0.00 0.00 0.00 79 1015.3
20260905191251 77 262 1.7 4.3 0.00 0.00 0.00 79 1015.3
20260905190751 77 291 1.7 3.5 0.00 0.00 0.00 79 1015.2
20260905190252 77 0 0.9 3.5 0.00 0.00 0.00 79 1015.2
20260905190009 77 267 0.9 3.5 0.00 0.00 0.00 79 1015.2
20260905185238 77 0 0.9 3.5 0.00 0.00 0.00 79 1015.4
20260905184724 76 326 0.9 3.5 0.00 0.00 0.00 81 1015.4
20260905184224 76 314 1.7 2.6 0.00 0.00 0.00 81 1015.4
20260905183724 77 316 0.9 2.6 0.00 0.00 0.00 80 1015.4
20260905183224 77 310 0.9 3.5 0.00 0.00 0.00 80 1015.3
20260905182725 77 294 0.9 3.5 0.00 0.00 0.00 80 1015.3
20260905182224 77 53 0.9 3.5 0.00 0.00 0.00 81 1015.4
20260905181956 77 283 0.9 2.6 0.00 0.00 0.00 80 1015.4
20260905181223 77 300 0.9 2.6 0.00 0.00 0.00 81 1015.3
20260905180724 77 270 0.9 1.7 0.00 0.00 0.00 81 1015.4
20260905180210 77 305 0.9 2.6 0.00 0.00 0.00 80 1015.3
20260905175710 78 84 0.9 2.6 0.00 0.00 0.00 80 1015.2
20260905175211 77 86 0.9 2.6 0.00 0.00 0.00 81 1015.2
20260905174925 77 307 0.9 2.6 0.00 0.00 0.00 81 1015.1
20260905174156 77 315 0.9 1.7 0.00 0.00 0.00 80 1015.1
20260905173654 77 303 0.9 1.7 0.00 0.00 0.00 81 1015.2
20260905173201 77 309 1.7 3.5 0.00 0.00 0.00 81 1015.1
20260905173157 77 76 0.9 3.5 0.00 0.00 0.00 80 1015.2
20260905172157 77 301 0.9 3.5 0.00 0.00 0.00 80 1015.2
20260905171654 78 323 0.0 1.7 0.00 0.00 0.00 79 1015.2
20260905171155 77 89 0.0 2.6 0.00 0.00 0.00 80 1015.3
20260905170653 76 58 0.9 4.3 0.00 0.00 0.00 81 1015.3
20260905170155 76 342 1.7 4.3 0.00 0.00 0.00 81 1015.3
20260905165653 76 43 0.9 2.6 0.00 0.00 0.00 80 1015.4
20260905165156 76 246 0.9 1.7 0.00 0.00 0.00 81 1015.5
20260905164654 76 318 0.9 1.7 0.00 0.00 0.00 80 1015.5
20260905164155 76 278 0.9 1.7 0.00 0.00 0.00 80 1015.4
20260905163640 76 247 0.9 1.7 0.00 0.00 0.00 81 1015.5
20260905163156 76 51 0.9 3.5 0.00 0.00 0.00 82 1015.5
20260905162602 0 289 0.9 1.7 0.00 0.00 0.00
20260905161932 76 306 0.0 1.7 0.00 0.00 0.00 81 1015.4
20260905161426 76 79 0.0 1.7 0.00 0.00 0.00 81 1015.4
20260905161127 76 238 0.9 1.7 0.00 0.00 0.00 81 1015.3
20260905160354 76 92 0.9 1.7 0.00 0.00 0.00 81 1015.2
20260905155655 76 254 0.9 2.6 0.00 0.00 0.00 81 1015.2
20260905155053 76 260 0.9 3.5 0.00 0.00 0.00 81 1015.2
20260905154541 76 288 0.9 3.5 0.00 0.00 0.00 81 1015.2
20260905154027 76 299 0.9 1.7 0.00 0.00 0.00 83 1015.2
20260905153511 76 284 0.9 1.7 0.00 0.00 0.00 83 1015.0
20260905153012 76 0 0.9 4.3 0.00 0.00 0.00 83 1014.9
20260905152452 76 0 0.9 4.3 0.00 0.00 0.00 83 1015.0
20260905151952 76 269 0.9 2.6 0.00 0.00 0.00 84 1014.9
20260905151452 76 265 0.9 3.5 0.00 0.00 0.00 84 1014.8
20260905150953 76 0 0.9 3.5 0.00 0.00 0.00 84 1014.8
20260905150453 76 0 0.9 3.5 0.00 0.00 0.00 84 1014.8
20260905145940 76 285 0.9 3.5 0.00 0.00 0.00 84 1014.8
20260905145440 76 0 0.9 2.6 0.00 0.00 0.00 83 1014.7
20260905144925 76 308 0.0 1.7 0.00 0.00 0.00 83 1014.7
20260905144425 76 292 0.0 1.7 0.00 0.00 0.00 83 1014.7
20260905143925 76 281 0.0 1.7 0.00 0.00 0.00 83 1014.6
20260905143656 76 307 0.0 1.7 0.00 0.00 0.00 84 1014.6
20260905143156 76 318 0.0 1.7 0.00 0.00 0.00 84 1014.6
20260905142425 76 191 0.9 1.7 0.00 0.00 0.00 84 1014.5
20260905142155 76 266 0.9 1.7 0.00 0.00 0.00 83 1014.4
20260905141425 76 0 0.9 1.7 0.00 0.00 0.00 85 1014.5
20260905140925 75 236 0.9 1.7 0.00 0.00 0.00 85 1014.4
20260905140426 75 255 0.0 3.5 0.00 0.00 0.00 86 1014.4
20260905135925 75 0 0.0 3.5 0.00 0.00 0.00 87 1014.5
20260905135411 74 246 0.0 3.5 0.00 0.00 0.00 88 1014.5
20260905134910 74 0 0.0 1.7 0.00 0.00 0.00 88 1014.6
20260905134356 74 0 0.9 2.6 0.00 0.00 0.00 89 1014.6
20260905133856 74 268 0.9 2.6 0.00 0.00 0.00 89 1014.6
20260905133356 74 25 0.0 2.6 0.00 0.00 0.00 89 1014.8
20260905132856 74 279 0.0 2.6 0.00 0.00 0.00 90 1014.9
20260905132356 74 0 0.0 2.6 0.00 0.00 0.00 90 1014.7
20260905131856 74 0 0.0 2.6 0.00 0.00 0.00 91 1014.5
20260905131355 74 0 0.0 1.7 0.00 0.00 0.00 91 1014.3
20260905130856 74 0 0.0 0.0 0.00 0.00 0.00 92 1014.3
20260905130355 74 268 0.0 2.6 0.00 0.00 0.00 91 1014.3
20260905125854 73 61 0.9 2.6 0.00 0.00 0.00 92 1014.3
20260905125613 73 317 0.0 2.6 0.00 0.00 0.00 92 1014.2
20260905124826 73 297 0.9 2.6 0.00 0.00 0.00 92 1014.2
20260905124327 73 271 0.9 2.6 0.00 0.00 0.00 92 1014.1
20260905123830 73 0 0.0 0.9 0.00 0.00 0.00 92 1013.9
20260905123826 73 9 0.0 1.7 0.00 0.00 0.00 92 1014.0
20260905122827 73 0 0.0 0.9 0.00 0.00 0.00 92 1013.8
20260905122327 73 0 0.0 0.9 0.00 0.00 0.00 92 1013.7
20260905121827 73 0 0.0 1.7 0.00 0.00 0.00 92 1013.7
20260905121559 73 350 0.0 1.7 0.00 0.00 0.00 92 1013.6
20260905120828 73 0 0.0 1.7 0.00 0.00 0.00 92 1013.6
20260905120543 72 1 0.0 1.7 0.00 0.00 0.00 92 1013.6
20260905115812 72 319 0.0 1.7 0.00 0.00 0.00 92 1013.5